DL8NDG-13 Weather Reports


Display with metric or nautical units.
time (UTC)temp
F
wind
direction
speed
MPH
gust
MPH
rain 1hr
in
rain 24hr
in
rain mn
in
humidity
%
barometer
mb
20260506090038 60 360 0.0 0.0 0.00 0.09 0.00 78 1005.3
20260506084535 60 202 0.0 0.0 0.00 0.09 0.00 80 1005.2
20260506083034 59 203 0.0 0.0 0.00 0.09 0.00 79 1005.5
20260506081532 59 234 0.0 0.0 0.00 0.09 0.00 80 1005.4
20260506073023 57 165 0.0 0.0 0.00 0.09 0.00 86 1005.1
20260506071520 56 166 0.0 0.0 0.00 0.09 0.00 85 1005.0
20260506061552 53 236 0.0 0.0 0.00 0.09 0.00 80 1005.1
20260506044544 48 257 0.0 0.0 0.00 0.09 0.00 81 1005.6
20260506043043 47 284 0.0 0.0 0.00 0.09 0.00 83 1005.7
20260506041555 47 281 0.0 0.0 0.00 0.09 0.00 84 1005.7
20260506040039 48 261 0.0 0.0 0.00 0.09 0.00 84 1005.5
20260506034537 48 233 0.0 0.0 0.00 0.09 0.00 84 1005.3
20260506033034 49 225 0.0 0.0 0.00 0.09 0.00 84 1005.1
20260506031532 49 226 0.0 0.0 0.00 0.09 0.00 84 1005.2
20260506030032 50 225 0.0 0.0 0.00 0.09 0.00 83 1005.5
20260506024527 50 222 0.0 0.0 0.00 0.09 0.00 82 1005.5
20260506023026 50 222 0.0 0.0 0.00 0.09 0.00 83 1005.6
20260506021524 51 221 0.0 0.0 0.00 0.09 0.00 83 1005.7
20260506020025 51 243 0.0 0.0 0.00 0.09 0.00 83 1005.4
20260506014532 51 226 0.0 0.0 0.00 0.09 0.00 83 1005.3
20260506013027 51 225 0.0 0.0 0.00 0.09 0.00 83 1005.4
20260506011619 51 225 0.0 0.0 0.00 0.09 0.00 83 1005.7
20260506010024 51 223 0.0 0.0 0.00 0.09 0.00 83 1005.7
20260506004524 51 222 0.0 0.0 0.00 0.09 0.00 83 1005.7
20260506003014 52 222 0.0 0.0 0.00 0.09 0.00 84 1005.7
20260506001514 52 245 0.0 0.0 0.00 0.09 0.00 84 1005.7
20260506000018 52 244 0.0 0.0 0.00 0.09 0.00 83 1006.0
20260505234515 52 243 0.0 0.0 0.00 0.09 0.00 83 1006.1
20260505233007 53 225 0.0 0.0 0.00 0.09 0.00 83 1006.1
20260505231506 53 223 0.0 0.0 0.00 0.09 0.00 84 1006.1
20260505230004 53 224 0.0 0.0 0.00 0.09 0.00 83 1006.2
20260505224506 53 257 0.0 0.0 0.00 0.09 0.00 84 1006.3
20260505223007 53 244 0.0 0.0 0.00 0.09 0.00 84 1006.2
20260505221502 53 227 0.0 0.0 0.00 0.09 0.00 84 1006.4
20260505220100 53 244 0.0 0.0 0.00 0.09 0.00 84 1006.2
20260505214607 53 227 0.0 0.0 0.00 0.09 0.09 85 1006.1
20260505213100 53 227 0.0 0.0 0.00 0.09 0.09 85 1006.2
20260505211611 53 226 0.0 0.0 0.00 0.09 0.09 85 1006.0
20260505210104 54 225 0.0 0.0 0.00 0.09 0.09 85 1006.0
20260505204553 54 224 0.0 0.0 0.00 0.09 0.09 85 1005.9
20260505203053 54 244 0.0 0.0 0.00 0.09 0.09 86 1005.8
20260505201559 54 227 0.0 0.0 0.00 0.09 0.09 86 1005.5
20260505200050 54 227 0.0 0.0 0.00 0.09 0.09 86 1005.6
20260505194548 55 229 0.0 0.0 0.00 0.09 0.09 86 1005.6
20260505193050 55 226 0.0 0.0 0.00 0.09 0.09 86 1005.7
20260505191552 55 225 0.0 0.0 0.00 0.09 0.09 86 1005.5
20260505190058 55 246 0.0 0.0 0.00 0.09 0.09 86 1005.4
20260505184552 56 244 0.0 0.0 0.00 0.09 0.09 86 1005.2
20260505183049 56 240 0.0 0.0 0.00 0.09 0.09 86 1005.2
20260505181539 57 221 0.0 0.0 0.00 0.09 0.09 85 1004.8
20260505180041 57 213 0.0 0.0 0.00 0.09 0.09 85 1004.7
20260505174540 57 200 0.0 0.0 0.00 0.09 0.09 85 1004.9
20260505173040 57 202 0.0 0.0 0.01 0.09 0.09 85 1004.8
20260505171540 57 227 0.0 5.0 0.04 0.09 0.09 85 1004.6
20260505170035 57 200 2.0 7.0 0.06 0.09 0.09 86 1004.6
20260505164537 57 197 5.0 12.0 0.08 0.09 0.09 86 1004.6
20260505163033 58 247 5.0 10.0 0.08 0.08 0.08 86 1004.9
20260505161532 58 182 3.0 11.0 0.05 0.05 0.05 86 1005.3
20260505153030 62 206 11.0 25.0 0.00 0.00 0.00 79 1004.8
20260505151524 68 360 13.0 20.0 0.00 0.00 0.00 65 1004.2
20260505124514 74 223 0.0 0.0 0.00 0.00 0.00 44 1004.3
20260505123009 74 277 0.0 0.0 0.00 0.00 0.00 44 1004.4
20260505121510 74 283 0.0 6.0 0.00 0.00 0.00 45 1004.4
20260505120005 74 252 4.0 8.0 0.00 0.00 0.00 43 1004.6
20260505114503 73 5 0.0 0.0 0.00 0.00 0.00 48 1004.8
20260505113001 72 11 0.0 0.0 0.00 0.00 0.00 51 1004.8
20260505111603 73 13 2.0 9.0 0.00 0.00 0.00 52 1005.0
20260505101552 72 16 0.0 0.0 0.00 0.00 0.00 56 1005.4
20260505100048 71 12 0.0 0.0 0.00 0.00 0.00 60 1005.6
20260505094547 70 11 0.0 0.0 0.00 0.00 0.00 60 1005.7
20260505093046 69 17 0.0 0.0 0.00 0.00 0.00 63 1006.1
20260505091544 69 15 0.0 0.0 0.00 0.00 0.00 65 1006.2